sat.trackr.live / text

‹ back to catalog

STARLINK-34391

NORAD 64298 · 2025-123H

PAYLOAD ACTIVE UNKNOWN

§ Identity

Operator
Country
US
Launch date
2025-06-08
Launch site
AFWTR
Launch vehicle
Mass (kg)
RCS (m²)

Purposes: comms

External: N2YO · Heavens-Above · Gunter

§ Orbital elements

Epoch: 2026-05-24T23:57:56.543904Z

Period
96.11 min
Inclination
70.0025°
Eccentricity
0.0002552
Mean motion
14.98335476 rev/d
Perigee alt
570.3 km
Apogee alt
573.8 km
Semi-major
6,950.2 km
B*
3.1571e-4
RAAN
1.8621°
Arg perigee
268.1836°
Mean anomaly
91.9031°
Rev number
5,305

§ Raw data

STARLINK-343911 64298U 25123H   26144.99857111  .00003676  00000+0  31571-3 0  99912 64298  70.0025   1.8621 0002552 268.1836  91.9031 14.98335476 53057

JSON: /api/v1/satellites/64298 · /tle

For live sub-satellite position, see the globe view (requires WebGL).

§ Visibility from observer

Set your observer location to see the next 7 days of passes ≥ 10°. The values pass through the URL so the page stays shareable.

No JS? Fill the form by hand. The geolocation button needs JavaScript.